Oshkosh, WI

6:37 AM CDT on May 23, 2017 (GMT -0500)
Wittman Regional

Weather History for KOSH - May, 2013

Change the Weather History Date:

Wednesday, May 22, 2013

  Actual Average Record
Temperature  
Mean Temperature 56 °F -  
Max Temperature 62 °F 71 °F 88 °F (1964)
Min Temperature 51 °F 49 °F 29 °F (1967)
Degree Days  
Heating Degree Days 9    
Growing Degree Days 6 (Base 50)    
Moisture  
Dew Point 55 °F    
Average Humidity 91    
Maximum Humidity 94    
Minimum Humidity 86    
Precipitation  
Precipitation 1.30 in - - ()
Sea Level Pressure  
Sea Level Pressure 29.69 in    
Wind  
Wind Speed 6 mph (NNE)    
Max Wind Speed 16 mph    
Max Gust Speed 22 mph    
Visibility 6 miles    
Events Rain    
Averages and records for this station are not official NWS values.
T = Trace of Precipitation, MM = Missing Value Source: NWS Daily Summary

Daily Weather History Graph

Daily Weather History Graph

Search for Another Location

Airport or City:

Trip Planner

Search our weather history database for the weather conditions in past years. The results will help you decide how hot, cold, wet, or windy it might be!

Date:

Astronomy

May. 22, 2013 Rise Set
Actual Time 5:21 AM CDT 8:21 PM CDT
Civil Twilight 4:46 AM CDT 8:55 PM CDT
Nautical Twilight 4:03 AM CDT 9:39 PM CDT
Astronomical Twilight 3:11 AM CDT 10:31 PM CDT
Moon 5:38 PM CDT (5/22) 3:31 AM CDT (5/22)
Length of Visible Light 16h 08m
Length of Day
15h 00m
Waxing Gibbous, 91% of the Moon is Illuminated
May 22
Waxing Gibbous
May 24
Full
May 31
Last Quarter
Jun 8
New
Jun 16
First Quarter

Hourly Weather History & Observations

Time (CDT) Temp. Dew Point Humidity Pressure Visibility Wind Dir Wind Speed Gust Speed Precip Events Conditions
12:53 AM 57.9 °F 54.0 °F 87% 29.66 in 10.0 mi Calm Calm - N/A   Clear
1:53 AM 55.0 °F 52.0 °F 89% 29.65 in 10.0 mi Calm Calm - N/A   Clear
2:53 AM 57.0 °F 53.1 °F 87% 29.64 in 10.0 mi Calm Calm - N/A   Clear
3:53 AM 57.0 °F 53.1 °F 87% 29.64 in 10.0 mi Calm Calm - N/A   Partly Cloudy
4:53 AM 57.0 °F 55.0 °F 93% 29.63 in 9.0 mi Calm Calm - N/A   Mostly Cloudy
5:53 AM 57.9 °F 55.9 °F 93% 29.63 in 4.0 mi Calm Calm - N/A   Mostly Cloudy
6:53 AM 61.0 °F 57.0 °F 87% 29.65 in 10.0 mi Calm Calm - N/A   Overcast
7:53 AM 61.0 °F 57.9 °F 90% 29.64 in 5.0 mi NNE 8.1 mph - N/A   Overcast
8:27 AM 60.8 °F 57.2 °F 88% 29.67 in 6.0 mi NNE 8.1 mph - N/A   Overcast
8:53 AM 60.1 °F 55.9 °F 86% 29.65 in 6.0 mi NE 10.4 mph - N/A   Overcast
9:53 AM 60.1 °F 57.0 °F 90% 29.64 in 3.0 mi NE 9.2 mph - 0.02 in Rain Light Rain
10:11 AM 60.8 °F 57.2 °F 88% 29.66 in 2.0 mi NE 8.1 mph - 0.01 in Rain Light Rain
10:40 AM 59.0 °F 57.2 °F 94% 29.68 in 2.0 mi NNE 12.7 mph - 0.04 in Rain Light Rain
10:53 AM 59.0 °F 57.0 °F 93% 29.66 in 4.0 mi North 10.4 mph - 0.05 in Rain Light Rain
11:53 AM 57.9 °F 55.9 °F 93% 29.67 in 3.0 mi NNE 8.1 mph - 0.02 in Rain Light Rain
12:04 PM 57.2 °F 55.4 °F 94% 29.68 in 2.0 mi North 6.9 mph - 0.03 in Rain Rain
12:11 PM 57.2 °F 55.4 °F 94% 29.68 in 1.8 mi North 9.2 mph - 0.05 in Rain Rain
12:41 PM 57.2 °F 55.4 °F 94% 29.69 in 2.0 mi NNE 10.4 mph - 0.13 in Rain Rain
12:53 PM 57.9 °F 55.9 °F 93% 29.68 in 1.8 mi NNE 10.4 mph - 0.16 in Rain Rain
1:53 PM 57.0 °F 55.0 °F 93% 29.68 in 2.0 mi NE 9.2 mph - 0.30 in Rain Rain
2:21 PM 57.2 °F 55.4 °F 94% 29.68 in 2.0 mi NE 12.7 mph - 0.09 in Rain Rain
2:53 PM 57.0 °F 55.0 °F 93% 29.69 in 2.5 mi NE 13.8 mph - 0.20 in Rain Rain
3:02 PM 57.2 °F 55.4 °F 94% 29.69 in 3.0 mi NE 12.7 mph - 0.02 in Rain Rain
3:53 PM 57.0 °F 55.0 °F 93% 29.67 in 8.0 mi NE 12.7 mph - 0.07 in   Overcast
4:53 PM 57.9 °F 55.0 °F 90% 29.68 in 10.0 mi NE 8.1 mph - N/A   Overcast
5:53 PM 57.0 °F 54.0 °F 89% 29.70 in 10.0 mi NE 16.1 mph 20.7 mph 0.00 in   Overcast
6:53 PM 57.9 °F 55.0 °F 90% 29.71 in 7.0 mi NE 12.7 mph - N/A   Overcast
7:53 PM 57.0 °F 54.0 °F 89% 29.73 in 10.0 mi NNE 13.8 mph 20.7 mph 0.00 in Rain Light Rain
8:09 PM 57.2 °F 53.6 °F 88% 29.75 in 10.0 mi NNE 16.1 mph - 0.00 in   Overcast
8:35 PM 55.4 °F 53.6 °F 94% 29.76 in 10.0 mi North 11.5 mph - 0.01 in Rain Light Rain
8:53 PM 55.0 °F 52.0 °F 89% 29.76 in 10.0 mi North 12.7 mph 21.9 mph 0.01 in Rain Light Rain
9:40 PM 53.6 °F 51.8 °F 94% 29.78 in 5.0 mi North 10.4 mph - 0.02 in Rain Light Rain
9:53 PM 53.1 °F 51.1 °F 93% 29.78 in 5.0 mi North 10.4 mph - 0.05 in Rain Rain
10:53 PM 53.1 °F 50.0 °F 89% 29.80 in 4.0 mi North 9.2 mph - 0.22 in Rain Rain
11:23 PM 51.8 °F 50.0 °F 94% 29.80 in 3.0 mi North 10.4 mph - 0.11 in Rain Rain
11:53 PM 52.0 °F 50.0 °F 93% 29.81 in 2.5 mi NNE 12.7 mph - 0.20 in Rain Rain